Weather in Yukta

Russia / Krasnoyarsk Krai     63°26′57″N   105°46′05″E
temp.,
°C
wind,
m/s
gust,
m/s
humid.,
%
clouds,
%
prec.,
mm/h
press.,
hPa
HPBL,
m
9 may, sun
sun901:00+2ne118855 0.0 101612
04:00+3ne118899 0.0 101614
07:00+7ene127251 0.0 1017137
10:00+9ene245899 0.0 10171149
13:00+11ene245189 0.1 10171713
16:00+10ne455566 0.1 10171531
19:00+8nne367123 0.2 1019195
22:00+3nne38875 0.0 1021234
10 may, mon
mon1001:00+1n239224 0.0 102260
04:000n238885 0.0 102375
07:00+3nne36685 0.0 1023762
10:00+5nne355684 0.0 10231368
13:00+7nne4547100 0.0 10221825
16:00+7nne4549100 0.0 10231551
19:00+4ne47595 0.0 1024951
22:000nne397513 0.0 1026431
11 may, tue
tue1101:00−1nne38805 0.0 1026452
04:00−2nne38755 0.0 1027653
07:000nne465897 0.0 10271166
10:00+2nne4650100 0.0 10261616
13:00+3nne4646100 0.1 10251718
16:00+4nne4647100 0.1 10251637
19:00+2nne365594 0.1 10251187
22:00−1n22736 0.0 102537
12 may, wed
wed1201:00−2n22755 0.0 102540
04:00−2nnw22725 0.0 102449
07:00+2nnw34515 0.0 10231100
10:00+4nnw344167 0.0 10201659
13:00+7nnw343545 0.0 10181965
16:00+8nnw343176 0.0 10172193
19:00+7wnw224148 0.0 101656
22:00+3wsw2252100 0.0 101610
13 may, thu
thu1301:00+2sw2254100 0.0 101523
04:00+1sw2361100 0.0 101447
07:00+3w3681100 0.0 1013390
10:00+3wsw2794100 0.1 1012535
13:00+6wsw2481100 0.1 1011627
16:00+8sw3565100 0.4 1009945
19:00+8wsw4765100 0.7 1008580
22:00+5s2384100 0.1 100769